x

South Brooks (46132) Wave Buoy

8:00 - Fri 24th Oct 2014 All times are PDT. -7 hours from GMT.

  • Sig Wave height 9.2ft
  • Peak Period 11s
  • Wind
    29mph, 38mph gusts
  • Sea Temp 57°f
  • Ar Temp 53°f
  • Sea Pressure 1013.1mb
  • South Brooks
  • South Brooks

More Historic Weather Station data

Upgrade to MSW Pro to gain access to the past 30 days of data for over 8000 Wavebouys and Weather Stations around the globe.

Join Pro

Comparision Forecast

View Surf forecast
   
Sex 10/24 8:00 9ft 11s 29 38 mph 1013.1mb 57f 53f
7:00 9ft 12s 27 34 mph 1012.9mb 57f 53f
6:00 9ft 11s 22 27 mph 1012.9mb 57f 53f
5:00 8ft 12s 22 27 mph 1012.7mb 58f 53f
4:00 8.5ft 11s 18 25 mph 1012.9mb 58f 51f
3:00 9ft 12s 11 18 mph 1013.1mb 57f 51f
2:00 9ft 12s 4 7 mph 1012.9mb 58f 51f
1:00 9ft 12s 18 22 mph 1012.4mb 58f 52f
12:00 8.5ft 9s 13 18 mph 1012.1mb 58f 51f
Qui 10/23 11:00 8.5ft 12s 7 11 mph 1011.8mb 58f 51f
10:00 10ft 10s 11 18 mph 1011.7mb 57f 51f
9:00 10.5ft 10s 11 13 mph 1010.8mb 57f 54f
8:00 9.5ft 11s 2 4 mph 1009.9mb 56f 52f
7:00 10.5ft 11s 18 25 mph 1009.2mb 57f 54f
6:00 10ft 11s 18 20 mph 1008.4mb 57f 55f
5:00 9ft 10s 11 13 mph 1008.1mb 58f 55f
4:00 9.5ft 9s 7 11 mph 1007.7mb 58f 56f
3:00 10ft 10s 9 16 mph 1006.9mb 58f 53f
2:00 10ft 9s 9 11 mph 1006.6mb 58f 54f
1:00 10ft 9s 9 11 mph 1005.9mb 58f 54f
12:00 11ft 11s 13 18 mph 1005mb 58f 54f
11:00 10.5ft 10s 16 20 mph 1004.4mb 58f 55f
10:00 10.5ft 10s 11 13 mph 1004mb 58f 55f
9:00 11ft 11s 9 11 mph 1003.1mb 59f 55f
8:00 11ft 10s 7 9 mph 1002.9mb 59f 55f
7:00 12ft 9s 4 9 mph 1002.4mb 59f 55f
6:00 12ft 11s 7 9 mph 1002.2mb 59f 55f
5:00 12ft 10s 9 13 mph 1001.7mb 59f 55f
4:00 12ft 11s 7 11 mph 1001.5mb 59f 55f
3:00 12.5ft 10s 11 13 mph 1001.3mb 59f 55f
2:00 12.5ft 13s 13 18 mph 1000.8mb 59f 56f
1:00 12ft 13s 13 18 mph 1000.1mb 59f 56f
12:00 12ft 14s 9 11 mph 999.7mb 59f 54f
Qua 10/22 11:00 13ft 12s 9 11 mph 998.9mb 58f 54f
10:00 12ft 14s 9 13 mph 998.1mb 58f 54f
9:00 12.5ft 10s 13 18 mph 997.6mb 58f 54f
8:00 14ft 13s 18 25 mph 997.1mb 58f 56f
7:00 15ft 10s 13 18 mph 996.6mb 58f 57f
6:00 15ft 13s 11 16 mph 997.1mb 58f 56f
5:00 15ft 10s 9 16 mph 997.4mb 58f 53f
4:00 16.5ft 10s 22 29 mph 997.1mb 58f 57f
3:00 17.5ft 14s 18 25 mph 997.2mb 58f 58f
2:00 17.5ft 12s 20 27 mph 997.3mb 58f 57f
1:00 16.5ft 14s 25 31 mph 997.3mb 58f 57f
12:00 16.5ft 14s 27 34 mph 997.1mb 58f 56f
11:00 16.5ft 14s 25 31 mph 997.5mb 58f 56f
10:00 17.5ft 14s 25 31 mph 997.6mb 58f 55f
9:00 17ft 12s 22 29 mph 997.5mb 58f 55f
8:00 18.5ft 15s 22 29 mph 997.8mb 58f 54f
7:00 16.5ft 16s 25 29 mph 997.6mb 58f 57f
6:00 16ft 15s 16 20 mph 998mb 58f 57f
5:00 16ft 16s 16 20 mph 998mb 58f 57f
4:00 17.5ft 16s 11 13 mph 997.9mb 58f 56f
3:00 17ft 16s 7 9 mph 997.7mb 58f 56f
2:00 16.5ft 14s 4 9 mph 997.3mb 58f 56f
1:00 18ft 14s 11 16 mph 996.3mb 58f 55f
12:00 20ft 14s 16 20 mph 995.3mb 58f 55f
Ter 10/21 11:00 16.5ft 12s 9 13 mph 994.7mb 58f 54f
9:00 15ft 12s 4 9 mph 995.8mb 58f 53f
8:00 14.5ft 12s 4 7 mph 996.9mb 58f 53f
7:00 12ft 12s 9 13 mph 998.1mb 58f 53f
6:00 13ft 12s 11 16 mph 998.8mb 58f 53f
5:00 11.5ft 12s 13 18 mph 999.8mb 58f 53f
4:00 12ft 10s 29 36 mph 1000.2mb 58f 56f
3:00 11.5ft 10s 16 20 mph 1000.9mb 58f 58f
2:00 12ft 8s 20 22 mph 1001.3mb 58f 59f
1:00 11ft 10s 16 18 mph 1001.8mb 58f 58f
12:00 12ft 10s 20 25 mph 1001.6mb 58f 59f
11:00 12.5ft 11s 20 25 mph 1000.6mb 58f 59f
10:00 12.5ft 8s 20 25 mph 1000.4mb 58f 58f
9:00 13ft 12s 29 38 mph 999.4mb 58f 58f
8:00 13ft 10s 34 40 mph 999mb 58f 58f
7:00 12ft 12s 31 36 mph 999.3mb 58f 58f
6:00 12ft 11s 29 38 mph 1000.3mb 58f 58f
5:00 12.5ft 12s 22 34 mph 1001.1mb 58f 57f
4:00 11.5ft 13s 27 31 mph 1001.5mb 58f 58f
3:00 12ft 14s 22 29 mph 1002.2mb 59f 58f
2:00 11ft 14s 22 27 mph 1002.6mb 59f 58f
1:00 11.5ft 14s 18 22 mph 1002.6mb 59f 58f
12:00 10.5ft 14s 16 20 mph 1002.6mb 59f 58f
Seg 10/20 11:00 11ft 13s 11 16 mph 1002.9mb 59f 58f
10:00 11ft 14s 9 11 mph 1003mb 59f 58f
9:00 11.5ft 15s 7 9 mph 1003mb 59f 58f
8:00 10.5ft 11s 7 11 mph 1002.9mb 59f 58f
7:00 12.5ft 14s 7 11 mph 1003mb 59f 58f
6:00 13ft 13s 9 11 mph 1003.1mb 59f 58f
5:00 14ft 14s 9 11 mph 1003.1mb 59f 59f